Volver al catálogo

GLOBALSTAR M080

ActivoComunicacionesLEO
NORAD 38041·PAYLOAD·🇺🇸 United States

Lanzado Dec 28, 2011 desde Baikonur Cosmodrome

Loading…

Próximos Pases (próximas 24 horas)

TLE

ActualizadoSource: Space-Track

Época: Sep 14, 2026, 15:11 UTC

1 38041U 11080B   26257.63319972 -.00000091  00000-0  71468-4 0  9999
2 38041  52.0046 106.7293 0001177  88.5759 306.6795 12.62258801680185

Sigue GLOBALSTAR M080 en tiempo real con AllMySat

Download on the App Store